Location: Oak Ridge
(36.0100°N, 84.2700°W)
Time: 04:34:34
(UTC-04:00)

Envisat - Visible Passes

Search period start: 21 June 2018 00:00
Search period end: 01 July 2018 00:00
Orbit: 764 x 766 km, 98.2° (Epoch: 20 June)

Date Brightness Start Highest point End Pass type
(mag) Time Alt. Az. Time Alt. Az. Time Alt. Az.
21 Jun 5.8 22:25:29 10° WSW 22:27:06 11° W 22:28:44 10° WNW visible
22 Jun 5.0 21:45:46 10° SSW 21:50:04 28° W 21:54:24 10° NW visible
24 Jun 5.6 22:12:57 10° SW 22:15:50 15° W 22:18:44 10° WNW visible
25 Jun 4.6 21:34:13 10° SSW 21:38:51 35° W 21:43:30 10° NNW visible
27 Jun 5.4 22:00:57 10° SW 22:04:35 20° W 22:08:13 10° NW visible
28 Jun 4.1 21:22:48 10° S 21:27:38 46° W 21:32:32 10° NNW visible
29 Jun 6.1 22:30:07 10° W 22:30:24 10° W 22:30:43 10° W visible
30 Jun 5.1 21:49:12 10° SSW 21:53:20 25° W 21:57:30 10° NW visible
